contact:dominique.lefevre@mio.osupytheas.fr, maurice.libes@osupytheas.fr
Project:EMSO Ligure-ouest http://www.emso-fr.org/EMSO-France
Sensor Aquadopp, line 13 Serial AQD14315 
DOI : "https://doi.org/10.17882/74513; https://doi.org/10.17882/83244" 
Title:EMSO Ligure Ouest : Data ligne ALBATROSS capteur AQUADOPP - deploiement 2021
Id,Date,Profondeur,Latitude,Longitude,X_East,Y_North,Z_Up,Amplitude_X,Amplitude_Y,Amplitude_Z,Batterie,SoundSpeed,Heading,Pitch,Roll,Pressure,Temperature,Speed,Direction
, , m, degrees North, degrees East, m.s-1, m.s-1,m.s-1, 1, 1, 1, Volt, m.s-1, degree, degree, degree, dbar, degree_C, m.s-1, degree
09,2022-03-24T21:30:00,2000.0,42.79,6.0312,-0.021,0.019,0.0,60.0,59.0,59.0,11.9,1504.6,330.5,-0.8,0.9,1990.492,13.27,0.028,312.1
09,2022-03-24T22:00:00,2000.0,42.79,6.0312,-0.021,0.017,0.001,59.0,56.0,60.0,11.9,1504.6,331.3,-0.8,0.9,1990.496,13.27,0.027,309.0
09,2022-03-24T22:30:00,2000.0,42.79,6.0312,-0.023,0.028,-0.007,60.0,58.0,63.0,12.0,1504.6,330.3,-0.7,0.9,1990.507,13.27,0.036,320.6
09,2022-03-24T23:00:00,2000.0,42.79,6.0312,-0.015,0.019,-0.014,61.0,57.0,62.0,11.9,1504.6,328.5,-0.8,0.9,1990.536,13.27,0.024,321.7
09,2022-03-25T00:00:00,2000.0,42.79,6.0312,-0.004,0.037,-0.002,58.0,57.0,59.0,12.0,1504.6,332.9,-0.7,0.9,1990.584,13.27,0.037,353.8
09,2022-03-25T00:30:00,2000.0,42.79,6.0312,0.014,0.032,-0.027,60.0,57.0,65.0,12.0,1504.6,335.5,-0.7,0.8,1990.545,13.27,0.034,23.6
09,2022-03-25T01:00:00,2000.0,42.79,6.0312,-0.005,0.007,0.012,60.0,56.0,60.0,12.0,1504.6,335.0,-0.7,0.9,1990.548,13.27,0.008,324.5
09,2022-03-25T01:30:00,2000.0,42.79,6.0312,0.023,0.006,-0.015,59.0,58.0,56.0,11.9,1504.6,332.4,-0.8,0.9,1990.529,13.27,0.023,75.4
09,2022-03-25T02:00:00,2000.0,42.79,6.0312,0.026,0.002,-0.003,57.0,56.0,57.0,12.0,1504.6,331.9,-0.7,0.9,1990.507,13.27,0.026,85.6
09,2022-03-25T02:30:00,2000.0,42.79,6.0312,0.001,-0.012,-0.017,58.0,53.0,56.0,11.9,1504.6,335.1,-0.8,0.9,1990.5,13.27,0.012,175.2
09,2022-03-25T03:00:00,2000.0,42.79,6.0312,0.016,0.005,0.007,60.0,56.0,64.0,12.0,1504.6,334.2,-0.8,0.8,1990.545,13.27,0.016,72.6
09,2022-03-25T03:30:00,2000.0,42.79,6.0312,-0.005,-0.005,0.017,53.0,57.0,59.0,12.0,1504.6,328.9,-0.8,0.8,1990.509,13.27,0.007,225.0
09,2022-03-25T04:00:00,2000.0,42.79,6.0312,0.0,-0.016,0.014,57.0,58.0,60.0,11.9,1504.6,326.6,-0.7,0.9,1990.545,13.27,0.016,180.0
09,2022-03-25T04:30:00,2000.0,42.79,6.0312,0.015,0.002,0.007,58.0,56.0,59.0,12.0,1504.6,325.4,-0.7,0.9,1990.494,13.27,0.015,82.4
09,2022-03-25T05:00:00,2000.0,42.79,6.0312,-0.015,-0.014,-0.035,61.0,58.0,59.0,12.0,1504.6,322.6,-0.8,0.8,1990.468,13.27,0.02,227.0
09,2022-03-25T05:30:00,2000.0,42.79,6.0312,-0.004,-0.018,0.025,61.0,59.0,60.0,12.0,1504.6,322.7,-0.8,0.9,1990.484,13.27,0.018,192.5
09,2022-03-25T06:00:00,2000.0,42.79,6.0312,-0.015,-0.008,-0.006,61.0,61.0,58.0,11.9,1504.6,322.7,-0.8,0.8,1990.439,13.27,0.017,241.9
09,2022-03-25T06:30:00,2000.0,42.79,6.0312,-0.02,-0.035,-0.017,59.0,57.0,61.0,11.9,1504.6,316.9,-0.8,0.9,1990.445,13.27,0.04,209.7
09,2022-03-25T07:00:00,2000.0,42.79,6.0312,-0.019,0.0,-0.012,59.0,55.0,59.0,12.0,1504.6,316.3,-0.8,0.9,1990.422,13.27,0.019,270.0
09,2022-03-25T07:30:00,2000.0,42.79,6.0312,-0.003,-0.018,0.006,62.0,55.0,61.0,11.9,1504.6,315.8,-0.8,0.8,1990.432,13.27,0.018,189.5
09,2022-03-25T08:00:00,2000.0,42.79,6.0312,-0.023,-0.003,-0.014,60.0,52.0,62.0,11.9,1504.6,315.6,-0.8,0.9,1990.458,13.27,0.023,262.6
09,2022-03-25T08:30:00,2000.0,42.79,6.0312,-0.006,-0.008,0.008,60.0,58.0,57.0,11.9,1504.6,317.5,-0.8,0.9,1990.447,13.27,0.01,216.9
09,2022-03-25T09:00:00,2000.0,42.79,6.0312,-0.014,0.014,-0.006,62.0,55.0,59.0,12.0,1504.6,315.8,-0.8,0.9,1990.464,13.27,0.019,315.0
09,2022-03-25T09:30:00,2000.0,42.79,6.0312,-0.014,-0.015,-0.002,61.0,54.0,60.0,12.0,1504.6,320.9,-0.8,0.8,1990.493,13.27,0.02,223.0
09,2022-03-25T10:00:00,2000.0,42.79,6.0312,0.005,-0.003,-0.005,60.0,56.0,58.0,11.9,1504.6,319.9,-0.8,0.9,1990.506,13.27,0.005,121.0
09,2022-03-25T10:30:00,2000.0,42.79,6.0312,-0.025,0.004,-0.023,60.0,54.0,59.0,11.9,1504.6,321.7,-0.8,0.9,1990.426,13.27,0.025,279.1
09,2022-03-25T11:00:00,2000.0,42.79,6.0312,-0.017,0.008,0.0,61.0,54.0,58.0,11.9,1504.6,328.1,-0.8,0.9,1990.542,13.27,0.018,295.2
09,2022-03-25T11:30:00,2000.0,42.79,6.0312,-0.009,0.005,-0.019,58.0,58.0,60.0,11.9,1504.6,327.8,-0.8,0.9,1990.51,13.27,0.01,299.1
09,2022-03-25T12:00:00,2000.0,42.79,6.0312,-0.009,0.001,0.006,63.0,58.0,57.0,11.9,1504.6,321.6,-0.9,0.8,1990.408,13.27,0.009,276.3
09,2022-03-25T13:00:00,2000.0,42.79,6.0312,-0.004,0.002,-0.012,57.0,55.0,62.0,12.0,1504.6,320.2,-0.8,0.9,1990.446,13.27,0.004,296.6
09,2022-03-25T13:30:00,2000.0,42.79,6.0312,0.007,0.004,-0.048,59.0,56.0,58.0,11.9,1504.6,323.1,-0.8,0.9,1990.432,13.27,0.008,60.3
09,2022-03-25T14:00:00,2000.0,42.79,6.0312,-0.011,0.02,-0.009,60.0,55.0,58.0,12.0,1504.6,327.8,-0.8,0.9,1990.455,13.27,0.022,331.2
09,2022-03-25T14:30:00,2000.0,42.79,6.0312,0.0,0.003,-0.002,59.0,63.0,63.0,12.0,1504.6,328.0,-0.8,0.9,1990.435,13.27,0.003,0.0
09,2022-03-25T15:00:00,2000.0,42.79,6.0312,0.0,0.002,0.0,59.0,59.0,58.0,11.9,1504.6,325.5,-0.7,0.9,1990.45,13.27,0.002,0.0
09,2022-03-25T15:30:00,2000.0,42.79,6.0312,-0.009,-0.01,-0.002,63.0,59.0,57.0,11.9,1504.6,323.5,-0.7,0.8,1990.442,13.27,0.013,222.0
09,2022-03-25T16:00:00,2000.0,42.79,6.0312,-0.005,0.011,0.021,60.0,58.0,61.0,12.0,1504.6,327.7,-0.8,0.8,1990.435,13.27,0.012,335.6
09,2022-03-25T16:30:00,2000.0,42.79,6.0312,-0.007,0.009,-0.035,62.0,55.0,57.0,12.0,1504.6,334.4,-0.7,0.9,1990.446,13.27,0.011,322.1
09,2022-03-25T17:00:00,2000.0,42.79,6.0312,0.0,-0.003,0.009,60.0,56.0,58.0,11.9,1504.6,339.6,-0.8,0.8,1990.446,13.27,0.003,180.0
09,2022-03-25T17:30:00,2000.0,42.79,6.0312,0.011,-0.019,0.008,61.0,58.0,56.0,11.9,1504.6,345.0,-0.6,0.9,1990.433,13.27,0.021,149.9
09,2022-03-25T18:00:00,2000.0,42.79,6.0312,0.002,0.008,0.009,61.0,57.0,57.0,12.0,1504.6,350.5,-0.7,0.9,1990.393,13.27,0.008,14.0
09,2022-03-25T18:30:00,2000.0,42.79,6.0312,0.002,-0.006,-0.006,62.0,56.0,59.0,11.9,1504.6,353.3,-0.6,0.8,1990.408,13.27,0.006,161.6
09,2022-03-25T19:00:00,2000.0,42.79,6.0312,0.005,-0.01,-0.022,64.0,53.0,60.0,11.9,1504.6,352.6,-0.7,0.9,1990.391,13.27,0.011,153.4
09,2022-03-25T19:30:00,2000.0,42.79,6.0312,0.018,-0.01,-0.025,56.0,57.0,62.0,11.9,1504.6,347.2,-0.7,0.9,1990.417,13.27,0.02,119.1
09,2022-03-25T20:00:00,2000.0,42.79,6.0312,0.009,-0.005,0.021,59.0,56.0,60.0,11.9,1504.6,352.4,-0.7,0.9,1990.445,13.27,0.01,119.1
09,2022-03-25T20:30:00,2000.0,42.79,6.0312,-0.013,-0.003,-0.027,60.0,58.0,60.0,11.9,1504.6,0.1,-0.6,0.9,1990.441,13.27,0.013,257.0
